TimeHAST,TemperatureF,Dew PointF,Humidity,Sea Level PressureIn,VisibilityMPH,Wind Direction,Wind SpeedMPH,Gust SpeedMPH,PrecipitationIn,Events,Conditions,WindDirDegrees,DateUTC
12:56 AM,41.0,41.0,100,29.93,6.0,NE,26.5,33.4,N/A,Rain,Light Rain,40,2013-11-18 10:56:00
1:41 AM,41.0,41.0,100,29.92,6.0,NE,27.6,-,N/A,Rain,Light Rain,40,2013-11-18 11:41:00
1:56 AM,41.0,41.0,100,29.92,6.0,NE,27.6,33.4,N/A,Rain,Light Rain,40,2013-11-18 11:56:00
2:28 AM,42.8,41.0,93,29.92,6.2,NE,26.5,35.7,N/A,Rain,Light Rain,40,2013-11-18 12:28:00
2:56 AM,42.1,41.0,96,29.93,6.0,NE,26.5,34.5,N/A,Rain,Light Rain,50,2013-11-18 12:56:00
3:15 AM,41.0,41.0,100,29.93,4.0,NE,26.5,34.5,N/A,Rain,Light Rain,50,2013-11-18 13:15:00
3:26 AM,41.0,41.0,100,29.93,4.0,NE,26.5,33.4,N/A,Rain,Light Rain,50,2013-11-18 13:26:00
3:56 AM,41.0,41.0,100,29.93,4.0,NE,28.8,-,N/A,Rain,Light Rain,50,2013-11-18 13:56:00
4:56 AM,41.0,41.0,100,29.95,8.0,NE,27.6,34.5,N/A,,Overcast,50,2013-11-18 14:56:00
5:11 AM,41.0,41.0,100,29.95,10.0,NE,26.5,33.4,N/A,,Overcast,50,2013-11-18 15:11:00
5:56 AM,41.0,41.0,100,29.96,10.0,NE,24.2,33.4,N/A,,Overcast,50,2013-11-18 15:56:00
6:05 AM,41.0,41.0,100,29.96,10.0,NE,26.5,-,N/A,,Overcast,50,2013-11-18 16:05:00
6:39 AM,41.0,41.0,100,29.97,8.0,NE,24.2,-,N/A,,Overcast,50,2013-11-18 16:39:00
6:56 AM,41.0,41.0,100,29.97,7.0,ENE,23.0,29.9,N/A,,Overcast,60,2013-11-18 16:56:00
7:28 AM,41.0,41.0,100,29.98,10.0,NE,24.2,31.1,N/A,,Overcast,50,2013-11-18 17:28:00
7:56 AM,42.1,39.9,92,29.99,10.0,NE,25.3,32.2,N/A,,Overcast,50,2013-11-18 17:56:00
8:03 AM,42.8,39.2,87,29.99,10.0,NE,25.3,32.2,N/A,,Overcast,50,2013-11-18 18:03:00
8:21 AM,42.8,39.2,87,29.99,10.0,NE,24.2,-,N/A,,Overcast,50,2013-11-18 18:21:00
8:41 AM,42.8,39.2,87,30.00,10.0,NE,26.5,33.4,N/A,,Overcast,50,2013-11-18 18:41:00
9:01 AM,41.0,39.2,93,30.00,6.0,NE,24.2,-,N/A,Rain,Light Rain,40,2013-11-18 19:01:00
9:56 AM,41.0,39.2,93,30.01,10.0,NE,25.3,-,N/A,,Overcast,50,2013-11-18 19:56:00
10:03 AM,41.0,39.2,93,30.02,10.0,ENE,19.6,29.9,N/A,,Overcast,60,2013-11-18 20:03:00
10:56 AM,41.0,39.9,96,30.03,10.0,NE,24.2,-,N/A,,Overcast,50,2013-11-18 20:56:00
11:56 AM,42.1,39.9,92,30.04,10.0,NE,24.2,31.1,N/A,,Overcast,50,2013-11-18 21:56:00
12:56 PM,42.1,39.9,92,30.04,10.0,NE,26.5,-,N/A,,Overcast,50,2013-11-18 22:56:00
1:56 PM,41.0,39.0,93,30.05,10.0,ENE,23.0,32.2,N/A,,Overcast,60,2013-11-18 23:56:00
2:21 PM,41.0,37.4,87,30.05,10.0,NE,21.9,28.8,N/A,,Overcast,50,2013-11-19 00:21:00
2:53 PM,41.0,39.2,93,30.04,6.2,NE,21.9,-,N/A,Rain,Light Rain,50,2013-11-19 00:53:00
2:56 PM,41.0,39.0,93,30.04,10.0,NE,23.0,-,N/A,Rain,Light Rain,40,2013-11-19 00:56:00
3:15 PM,41.0,39.2,93,30.04,6.2,NE,21.9,27.6,N/A,Rain,Light Rain,40,2013-11-19 01:15:00
3:56 PM,41.0,37.9,89,30.05,10.0,NE,26.5,31.1,N/A,,Overcast,40,2013-11-19 01:56:00
4:56 PM,41.0,37.9,89,30.05,10.0,NE,24.2,-,N/A,,Overcast,40,2013-11-19 02:56:00
5:56 PM,41.0,37.0,86,30.07,8.0,NE,21.9,-,N/A,Rain,Light Rain,40,2013-11-19 03:56:00
6:04 PM,41.0,37.4,87,30.07,6.2,NE,20.7,-,N/A,Rain,Light Rain,40,2013-11-19 04:04:00
6:30 PM,41.0,37.4,87,30.08,10.0,NE,25.3,31.1,N/A,,Overcast,50,2013-11-19 04:30:00
6:37 PM,41.0,37.4,87,30.08,10.0,NE,23.0,31.1,N/A,,Overcast,50,2013-11-19 04:37:00
6:56 PM,41.0,37.0,86,30.08,10.0,NE,23.0,-,N/A,,Overcast,50,2013-11-19 04:56:00
7:14 PM,39.2,37.4,93,30.08,10.0,NE,21.9,29.9,N/A,,Overcast,50,2013-11-19 05:14:00
7:21 PM,41.0,37.4,87,30.08,10.0,NE,20.7,-,N/A,,Overcast,40,2013-11-19 05:21:00
7:56 PM,41.0,37.0,86,30.09,10.0,NE,23.0,27.6,N/A,,Overcast,40,2013-11-19 05:56:00
8:56 PM,41.0,37.0,86,30.10,10.0,NE,23.0,28.8,N/A,,Overcast,40,2013-11-19 06:56:00
9:56 PM,39.9,37.0,89,30.11,10.0,NE,23.0,-,N/A,,Overcast,40,2013-11-19 07:56:00
10:17 PM,39.2,37.4,93,30.11,10.0,NE,18.4,-,N/A,,Overcast,40,2013-11-19 08:17:00
10:56 PM,39.9,37.0,89,30.12,10.0,NE,19.6,-,N/A,,Overcast,40,2013-11-19 08:56:00
11:56 PM,39.0,36.0,89,30.12,10.0,NE,19.6,-,N/A,Rain,Light Rain,40,2013-11-19 09:56:00